Regional Weather Roundup
Issued by NWS State College, PA

Home | Current Version | Previous Version | Text Only | Print | Product List | Glossary On
Versions: 1 2 3 4 5 6 7 8 9 10 11 12 13 14 15 16 17 18 19 20 21 22 23 24 25 26 27 28 29 30 31 32 33 34 35 36 37 38 39 40 41 42 43 44 45 46 47 48 49 50
758
ASUS41 KCTP 052210
RWRCTP

REGIONAL WEATHER ROUNDUP
NATIONAL WEATHER SERVICE STATE COLLEGE PA
500 PM EST FRI FEB 05 2016

Note: "fair" indicates few or no clouds below 12,000 feet with no
significant weather and/or obstructions to visibility.

* = STATION THAT DOES NOT REPORT PRECIPITATION /E.G. RAIN...SNOW...ETC/
    THUNDER OR FOG.

PAZ002>004-007>009-013>016-020>023-029>032-052300-
WESTERN PENNSYLVANIA

CITY           SKY/WX    TMP DP  RH WIND       PRES   REMARKS
ERIE           CLEAR     32  20  61 W7        30.35R
MEADVILLE      PTCLDY    31  15  52 W8        30.31R
FRANKLIN*      MOCLDY    30  14  51 W6        30.33S
NEW CASTLE     FAIR      33  17  51 W3        30.35R
BEAVER COUNTY  PTCLDY    34  18  51 NW3       30.34R
BUTLER*        CLEAR     32  16  51 W5        30.37R
PITTSBURGH INT PTCLDY    34  15  46 W7        30.34R
PITTSBURGH     CLEAR     36  16  44 NW8       30.32R
INDIANA*       PTCLDY    32  18  55 NW9       30.34S
LATROBE        PTCLDY    32  16  51 W6        30.34R
WASHINGTON CO* PTCLDY    36  16  44 W8        30.35R
$$

PAZ004>006-010>012-017>019-024>028-033>037-041-042-045-046-049>053-052300-
CENTRAL PENNSYLVANIA

CITY           SKY/WX    TMP DP  RH WIND       PRES   REMARKS
BRADFORD       PTCLDY    24  13  62 NW8       30.25R
DUBOIS         MOCLDY    29  14  53 W9        30.27R
CLEARFIELD     PTCLDY    31  14  49 W9        30.29R
JOHNSTOWN      CLOUDY    28  13  53 W9G20     30.25R
ALTOONA        CLEAR     32  15  49 NW13G18   30.29R
STATE COLLEGE  PTCLDY    32  16  51 W17       30.29R
WILLIAMSPORT   PTCLDY    37  16  42 NW9       30.27R
SELINSGROVE    CLOUDY    38  22  52 W9        30.29R
FT INDIANTOWN  PTCLDY    38  20  49 W8G20     30.27R
CAPITAL CITY   PTCLDY    39  17  41 W12       30.29R
HARRISBURG     PTCLDY    38  21  50 W16       30.28R
YORK           CLEAR     37  20  50 NW12G20   30.29R
$$

PAZ038>040-043-044-047-048-054-055-060>062-067>071-052300-
EASTERN PENNSYLVANIA

CITY           SKY/WX    TMP DP  RH WIND       PRES   REMARKS
SCRANTON       PTCLDY    33  15  47 NW12      30.24R
MOUNT POCONO   MOCLDY    29  12  49 NW20G28   30.14R
ALLENTOWN      PTCLDY    38  14  37 NW16G25   30.23R
QUAKERTOWN*    CLEAR     37  18  44 NW12G18   30.23R
READING        PTCLDY    38  17  42 NW15      30.25R
LANCASTER      MOCLDY    37  23  56 NW10      30.27R
COATESVILLE    PTCLDY    36  27  69 NW15      30.25R
POTTSTOWN      PTCLDY    38  17  42 NW8       30.25R
BLUE BELL        N/A     37  19  48 NW7G16    30.23R
DOYLESTOWN     PTCLDY    36  17  46 NW8G18    30.22R
WILLOW GROVE   NOT AVBL
NORTH PHILA    CLEAR     40  19  43 NW16G25   30.25R
PHILADELPHIA   PTCLDY    42  15  33 NW21G29   30.25R
$$




USA.gov is the U.S. government's official web portal to all federal, state and local government web resources and services.